一网星座-0245星 (ONEWEB-0245 )

导读 | 星芒AI

ONEWEB-0245 是 OneWeb 卫星星座计划中的一颗低轨通信卫星,旨在为全球提供高速互联网服务。该卫星于2023年发射,运行在约1200公里高度的近极地轨道,支持偏远和农村地区的宽带接入。作为 OneWeb 第二批卫星之一,它采用模块化设计,具备高容量和高可靠性,有助于构建全球无缝连接的通信网络。该星座计划最终部署超过600颗卫星,以实现全球覆盖。

基本信息
目录编号:
48778
目录名称:
ONEWEB-0245
国际标识:
2021-045M
轨道中心:
EARTH
卫星名称:
一网星座-0245星
卫星全名:
一网星座-0245星 (ONEWEB-0245 )
卫星状态:
在轨 (已飞行1616 天)
发射日期:
2021-05-28 UTC
国别 :
英国 (GB)
星等 :
--
轨道信息
数据来源 国际轨道数据
星历时间: 2025-10-30T06:00:31+0800
7小时前
查看轨道信息
半长轴: 7579.904km
偏心率: 0.0002123
轨道倾角: 87.896°
近地点辐角 94.069°
升交点赤经 305.140°
平近点角 266.068°
近地点: 1200.159km
远地点: 1203.379km
周期: 109.460分钟
每日圈数: 13.155496
详细信息
平衡模式:
三轴稳定
覆盖范围:
全球
运营商:
一网卫星公司
运营商所在国:
英国
制造商(研发单位):
一网卫星公司
制造商所在国:
英国
使用方式:
暂无
卫星简介
OneWeb卫星网络由648颗重约125公斤的微型卫星组成,运行在1200公里的轨道上。 每颗卫星都能够提供至少每秒8千兆位的吞吐量,以使用其高吞吐量的Ku频段有效载荷为家庭和移动平台提供互联网接入。该卫星仍在工作。
2D轨道图
3D轨道图
轨道高度分析图
轨道倾角分析图
轨道综合分析图
查看轨道综合分析图